User: anonymous   Login
Location: Unspecified
(0.0000°N, 0.0000°E)
Time: 00:25:24
(UTC+00:00)
Language:

COSMOS 2468 - Orbit

View from above orbital plane
View from above orbital plane
View from above satellite
View from above satellite

Ground track
Ground track

The orbit data is extracted from the following two-line orbital elements,

1 37154U 10043C   16121.50746310  .00000028  00000-0  12970-3 0  9997
2 37154  82.4631 218.4061 0015879  99.3076 260.9799 12.43623778256055
Epoch (UTC): 30 April 2016 12:10:44
Eccentricity: 0.0015879
inclination: 82.4631°
perigee height: 1479 km
apogee height: 1504 km
right ascension of ascending node: 218.4061°
argument of perigee: 99.3076°
revolutions per day: 12.43623778
mean anomaly at epoch: 260.9799°
orbit number at epoch: 25605

The dashed part of the orbit path shows where the satellite is in the earth's shadow,  

DLR